Content
SEND FEEDBACK

Daily
Averages
Monthly
Summary
Canada

RICHMOND NATURE PARK, BRITISH COLUMBIA


Home > North America > Canada > British Columbia
Elevation: 10 feet     Latitude: 49 10N     Longitude: 123 05W

WEATHER
 
SELECT A DAY
Number of Records: 199,917;   Date Range: 1/1/95 - 12/27/14
 
SHARE

PRINT THIS DATA

[ ← Previous Day ]
WEATHER ALMANAC - MARCH 8, 2013
[ Next Day → ]
[ °C ]   °F
Weather ElementAverageHighLow
Temperature40.3 °F48.2 °F (4:00 pm)32 °F (6:00 am)
Dewpoint30.6 °F39.2 °F (1:00 pm) (7:00 pm)
Humidity75.7 %87 % (3:00 am)56 % (4:00 pm)
Barometer27.14 in30.24 in (11:00 pm) (7:00 pm)
Wind Speed3.3 mph8.1 mph (2:00 pm)
Weather ElementAverage
Visibility22.5 mi
Wind DirectionSSE (166.9 °)

Weather ElementTotal
Precipitation---
Heating Degree Days24.9 (Base 65)
Averaged from 30 records on March 8, 2013
WEATHER CONDITIONS BREAKOUT
WIND DIRECTION BREAKOUT
WEATHER BY HOUR - MARCH 8, 2013
[ °C ]   °F
Local TimeTemperatureDewpointHumidityBarometerVisibilityWind DirectionWind SpeedGust SpeedPrecipitationEventsConditions
1:00 AM37.4 °F32.0 °F81 %30.13 in20.0 miNNW (340°)3.5 mphClear
2:00 AM37.4 °F32.0 °F81 %30.12 in20.0 miSE (140°)2.3 mphPartly Cloudy
2:51 AM35.6 °F0.0 °F20.0 miCalmFogShallow Fog
3:00 AM33.8 °F30.2 °F87 %30.11 in20.0 miCalmFogShallow Fog
4:00 AM34.0 °F29.0 °F73 %30.12 in19.0 miCalmMostly Cloudy
4:00 AM33.8 °F28.4 °F81 %30.12 in20.0 miCalmMostly Cloudy
5:00 AM33.8 °F28.4 °F81 %30.12 in20.0 miCalmFogShallow Fog
6:00 AM32.0 °F28.4 °F87 %30.13 in20.0 miNorth (10°)2.3 mphPartly Cloudy
6:31 AM35.6 °F0.0 °F20.0 miCalmMostly Cloudy
6:54 AM35.6 °F0.0 °F20.0 miCalmMostly Cloudy
7:00 AM35.6 °F30.2 °F81 %30.14 in20.0 miSE (140°)2.3 mphMostly Cloudy
8:00 AM37.4 °F32.0 °F81 %30.14 in20.0 miCalmOvercast
9:00 AM42.8 °F35.6 °F76 %30.15 in20.0 miWest (270°)2.3 mphOvercast
10:00 AM44.0 °F36.0 °F66 %30.16 in19.0 miNNW (340°)3.5 mphOvercast
10:00 AM42.8 °F35.6 °F76 %30.16 in20.0 miNNW (340°)3.5 mphOvercast
11:00 AM46.4 °F37.4 °F71 %30.16 in20.0 miSW (230°)5.8 mphScattered Clouds
12:00 PM46.4 °F37.4 °F71 %30.16 in30.0 miWSW (240°)6.9 mphPartly Cloudy
1:00 PM46.4 °F39.2 °F76 %30.15 in30.0 miWSW (240°)6.9 mphPartly Cloudy
2:00 PM46.4 °F37.4 °F71 %30.16 in30.0 miWest (270°)8.1 mphPartly Cloudy
3:00 PM46.4 °F37.4 °F71 %30.16 in30.0 miWest (260°)8.1 mphPartly Cloudy
4:00 PM47.0 °F36.0 °F56 %30.16 in28.0 miWest (280°)5.8 mphScattered Clouds
4:00 PM48.2 °F35.6 °F62 %30.16 in30.0 miWest (280°)5.8 mphPartly Cloudy
5:00 PM46.4 °F35.6 °F66 %30.16 in30.0 miWest (270°)6.9 mphPartly Cloudy
6:00 PM42.8 °F35.6 °F76 %30.17 in30.0 miWest (280°)5.8 mphPartly Cloudy
7:00 PM42.8 °F35.6 °F76 %30.19 in20.0 miNW (310°)5.8 mphPartly Cloudy
8:00 PM41.0 °F35.6 °F81 %30.20 in20.0 miCalmPartly Cloudy
9:00 PM41.0 °F35.6 °F81 %30.21 in20.0 miSW (230°)3.5 mphClear
10:00 PM39.0 °F33.0 °F73 %30.22 in19.0 miSE (130°)3.5 mph
10:00 PM39.2 °F33.8 °F81 %30.22 in20.0 miESE (120°)4.6 mphClear
11:00 PM39.2 °F33.8 °F81 %30.24 in20.0 miESE (120°)2.3 mphClear
Hourly data recorded from CYVR, located miles away from Richmond Nature Park, British Columbia







STORIES FROM OUR PARTNERS